Weather History for Port Angeles, WA

Change the Weather History Date:

Friday, November 9, 2012

  Actual Average Record
Temperature  
Mean Temperature 37 °F -  
Max Temperature 46 °F 50 °F 59 °F (1990)
Min Temperature 28 °F 39 °F 27 °F (1964)
Degree Days  
Heating Degree Days 28    
Moisture  
Dew Point 30 °F    
Average Humidity 77    
Maximum Humidity 92    
Minimum Humidity 46    
Precipitation  
Precipitation 0.00 in - - ()
Sea Level Pressure  
Sea Level Pressure 29.92 in    
Wind  
Wind Speed 5 mph (South)    
Max Wind Speed 8 mph    
Max Gust Speed -    
Visibility 10 miles    
Events      
Averages and records for this station are not official NWS values.
T = Trace of Precipitation, MM = Missing Value Source: NWS Daily Summary

Daily Weather History Graph

Daily Weather History Graph

Search for Another Location

Airport:

Trip Planner

Search our weather history database for the weather conditions in past years. The results will help you decide how hot, cold, wet, or windy it might be!

Date:

Astronomy

Nov. 09, 2012 Rise Set
Actual Time 7:12 AM PST 4:42 PM PST
Civil Twilight 6:39 AM PST 5:16 PM PST
Nautical Twilight 6:01 AM PST 5:53 PM PST
Astronomical Twilight 5:25 AM PST 6:29 PM PST
Moon 1:57 AM PST (11/9) 2:16 PM PST (11/9)
Length of Visible Light 10h 37m
Length of Day
9h 30m
Waning Crescent, 22% of the Moon is Illuminated
Nov 9
Waning Crescent
Nov 13
New
Nov 20
First Quarter
Nov 28
Full
Dec 6
Last Quarter

Hourly Weather History & Observations

Time (PST) Temp. Windchill Dew Point Humidity Pressure Visibility Wind Dir Wind Speed Gust Speed Precip Events Conditions
12:53 AM 33.1 °F 27.7 °F 30.0 °F 89% 29.88 in 10.0 mi SW 5.8 mph - N/A   Clear
1:53 AM 33.1 °F 26.9 °F 30.0 °F 89% 29.88 in 10.0 mi SW 6.9 mph - N/A   Clear
2:53 AM 32.0 °F 26.4 °F 30.0 °F 92% 29.89 in 10.0 mi SW 5.8 mph - N/A   Clear
3:53 AM 34.0 °F 28.0 °F 30.0 °F 85% 29.88 in 10.0 mi SW 6.9 mph - N/A   Clear
4:53 AM 33.1 °F 28.7 °F 30.0 °F 89% 29.89 in 10.0 mi SW 4.6 mph - N/A   Clear
5:53 AM 34.0 °F 28.0 °F 30.0 °F 85% 29.89 in 10.0 mi SW 6.9 mph - N/A   Clear
6:53 AM 32.0 °F - 28.9 °F 88% 29.90 in 10.0 mi North - - N/A   Clear
7:53 AM 34.0 °F 31.0 °F 30.9 °F 89% 29.92 in 10.0 mi SSW 3.5 mph - N/A   Overcast
8:53 AM 36.0 °F 31.1 °F 32.0 °F 86% 29.92 in 10.0 mi SW 5.8 mph - N/A   Mostly Cloudy
9:22 AM 37.9 °F - 33.1 °F 83% 29.92 in 10.0 mi Calm Calm - N/A   Overcast
9:53 AM 41.0 °F 39.0 °F 36.0 °F 82% 29.93 in 10.0 mi SSE 3.5 mph - N/A   Partly Cloudy
10:21 AM 44.1 °F 42.5 °F 34.0 °F 68% 29.92 in 10.0 mi East 3.5 mph - N/A   Mostly Cloudy
10:32 AM 45.0 °F 41.8 °F 34.0 °F 65% 29.92 in 10.0 mi East 5.8 mph - N/A   Mostly Cloudy
10:53 AM 44.1 °F - 33.1 °F 65% 29.93 in 10.0 mi Calm Calm - N/A   Scattered Clouds
11:02 AM 44.1 °F 42.5 °F 34.0 °F 68% 29.92 in 10.0 mi ESE 3.5 mph - N/A   Mostly Cloudy
11:41 AM 44.1 °F 42.5 °F 34.0 °F 68% 29.92 in 10.0 mi East 3.5 mph - N/A   Scattered Clouds
11:53 AM 44.1 °F 42.5 °F 33.1 °F 65% 29.92 in 10.0 mi SE 3.5 mph - N/A   Partly Cloudy
12:53 PM 46.9 °F - 30.9 °F 54% 29.91 in 10.0 mi East 8.1 mph - N/A   Clear
1:53 PM 46.9 °F - 27.0 °F 46% 29.91 in 10.0 mi Variable 3.5 mph - N/A   Clear
2:53 PM 46.0 °F 41.9 °F 28.9 °F 51% 29.91 in 10.0 mi East 8.1 mph - N/A   Clear
3:53 PM 44.1 °F 42.5 °F 26.1 °F 49% 29.91 in 10.0 mi East 3.5 mph - N/A   Clear
4:53 PM 37.9 °F - 28.9 °F 70% 29.92 in 10.0 mi Calm Calm - N/A   Clear
5:53 PM 34.0 °F - 30.0 °F 85% 29.93 in 10.0 mi Calm Calm - N/A   Clear
6:53 PM 28.9 °F 25.2 °F 27.0 °F 92% 29.94 in 10.0 mi SSW 3.5 mph - N/A   Clear
7:53 PM 30.9 °F 27.5 °F 28.0 °F 89% 29.95 in 10.0 mi SSW 3.5 mph - N/A   Clear
8:53 PM 30.9 °F 27.5 °F 28.0 °F 89% 29.96 in 10.0 mi SW 3.5 mph - N/A   Clear
9:53 PM 30.0 °F 26.5 °F 27.0 °F 88% 29.97 in 10.0 mi SSW 3.5 mph - N/A   Clear
10:53 PM 32.0 °F 26.4 °F 27.0 °F 82% 29.98 in 10.0 mi SW 5.8 mph - N/A   Clear
11:53 PM 30.9 °F 24.3 °F 26.1 °F 82% 29.99 in 10.0 mi SW 6.9 mph - N/A   Clear